1484920800.66,62486,8.31,74134.5,-4.79,-7.69,-7.61,0,*5C
1484920801.91,62487,8.31,74132.0,-4.81,-7.43,-7.49,0,*58
1484920803.19,62488,8.31,74134.3,-4.81,-7.73,-7.73,0,*5D
1484920804.46,62489,8.31,74134.5,-4.81,-8.07,-7.99,0,*54
1484920805.68,62490,8.31,74136.0,-4.81,-7.87,-7.87,0,*54
1484920806.95,62491,8.31,74136.3,-4.81,-7.69,-7.61,0,*5D
1484920808.21,62492,8.31,74138.8,-4.83,-7.73,-7.65,0,*53
1484920809.43,62493,8.31,74136.5,-4.83,-7.87,-7.77,0,*5A
1484920810.65,62494,8.31,74140.5,-4.83,-7.53,-7.39,0,*5E
1484920811.89,62495,8.31,74142.5,-4.85,-7.65,-7.53,0,*50
1484920813.17,62496,8.31,74140.3,-4.85,-7.73,-7.73,0,*56
1484920814.42,62497,8.31,74140.5,-4.83,-7.61,-7.35,0,*50
1484920815.64,62498,8.31,74142.3,-4.83,-7.65,-7.53,0,*5B
1484920816.86,62499,8.31,74146.5,-4.83,-7.65,-7.53,0,*5A
1484920818.08,62500,8.31,74144.5,-4.83,-7.73,-7.53,0,*5C
1484920819.3,62501,8.31,74140.3,-4.83,-7.61,-7.53,0,*5E
1484920820.52,62502,8.31,74138.8,-4.83,-7.73,-7.49,0,*55
1484920821.77,62503,8.31,74136.3,-4.83,-7.65,-7.39,0,*54
1484920823.04,62504,8.31,74136.8,-4.81,-7.43,-7.31,0,*5D
1484920824.28,62505,8.31,74136.3,-4.81,-7.49,-7.27,0,*51
1484920825.56,62506,8.31,74138.5,-4.81,-7.61,-7.27,0,*58
1484920826.83,62507,8.31,74142.5,-4.81,-7.43,-7.27,0,*59
1484920828.07,62508,8.31,74140.8,-4.81,-7.83,-7.69,0,*50
1484920829.29,62509,8.31,74136.3,-4.83,-8.17,-8.11,0,*51
1484920830.53,62510,8.31,74136.0,-4.83,-8.03,-7.99,0,*53
1484920831.8,62511,8.31,74138.8,-4.85,-8.03,-7.99,0,*54
1484920833.04,62512,8.31,74138.0,-4.83,-8.03,-7.99,0,*51
1484920834.23,62513,8.31,74134.5,-4.83,-8.41,-8.33,0,*59
1484920835.43,62514,8.31,74136.8,-4.83,-8.45,-8.29,0,*51
1484920836.68,62515,8.31,74138.5,-4.85,-7.87,-7.65,0,*50
1484920837.95,62516,8.31,74136.0,-4.85,-8.11,-7.99,0,*50
1484920839.23,62517,8.31,74138.0,-4.85,-7.77,-7.61,0,*59
1484920840.5,62518,8.31,74138.3,-4.85,-7.77,-7.61,0,*56
1484920841.77,62519,8.31,74136.5,-4.85,-7.91,-7.73,0,*5C
1484920843.02,62520,8.31,74140.0,-4.85,-8.17,-7.99,0,*53
1484920844.27,62521,8.31,74140.5,-4.85,-8.17,-8.03,0,*5E
1484920845.48,62522,8.31,74138.0,-4.85,-8.55,-8.55,0,*58
1484920846.68,62523,8.31,74136.3,-4.87,-8.75,-8.71,0,*5F
1484920847.89,62524,8.31,74136.0,-4.89,-8.75,-8.71,0,*56
1484920849.09,62525,8.31,74136.0,-4.91,-8.37,-8.41,0,*5B
1484920850.34,62526,8.31,74136.8,-4.89,-8.17,-8.03,0,*55
1484920851.55,62527,8.31,74142.3,-4.89,-8.33,-8.33,0,*51
1484920852.82,62528,8.31,74142.0,-4.89,-7.95,-7.77,0,*52
1484920854.05,62529,8.31,74136.5,-4.93,-8.37,-8.37,0,*54
1484920855.25,62530,8.31,74136.8,-4.91,-8.41,-8.37,0,*5F
1484920856.47,62531,8.31,74132.5,-4.91,-8.21,-8.11,0,*5C
1484920857.74,62532,8.31,74138.8,-4.93,-8.07,-7.95,0,*5A
1484920859.02,62533,8.31,74136.8,-4.93,-7.99,-7.73,0,*5B
1484920860.24,62534,8.31,74138.5,-4.91,-7.73,-7.49,0,*53
1484920861.49,62535,8.31,74138.5,-4.91,-7.69,-7.57,0,*56
1484920862.74,62536,8.31,74134.5,-4.93,-7.73,-7.49,0,*53
1484920863.97,62537,8.31,74132.5,-4.91,-7.87,-7.61,0,*51
1484920865.21,62538,8.31,74136.8,-4.91,-7.95,-7.73,0,*5E
1484920866.43,62539,8.31,74134.0,-4.91,-8.25,-7.99,0,*5F
1484920867.69,62540,8.31,74132.0,-4.93,-8.25,-8.07,0,*5B
1484920868.92,62541,8.31,74136.5,-4.93,-8.37,-8.21,0,*5D
1484920870.19,62542,8.31,74138.3,-4.93,-8.11,-7.99,0,*56
1484920871.46,62543,8.31,74140.0,-4.93,-8.11,-7.95,0,*5B
1484920872.74,62544,8.31,74138.0,-4.93,-7.99,-7.73,0,*5B
1484920873.96,62545,8.31,74140.0,-4.91,-7.83,-7.57,0,*55
1484920875.15,62546,8.31,74132.0,-4.91,-7.83,-7.49,0,*59
1484920876.4,62547,8.31,74132.3,-4.91,-8.07,-7.99,0,*56
1484920877.66,62548,8.31,74132.3,-4.93,-8.25,-8.07,0,*53
1484920878.88,62549,8.31,74138.8,-4.91,-8.25,-7.99,0,*58
1484920880.13,62550,8.31,74136.8,-4.93,-7.99,-7.83,0,*51
1484920881.38,62551,8.31,74140.5,-4.93,-8.07,-7.87,0,*5C
1484920882.63,62552,8.31,74142.5,-4.93,-7.99,-7.83,0,*53
1484920883.89,62553,8.31,74144.3,-4.93,-8.11,-7.87,0,*59
1484920885.13,62554,8.31,74146.5,-4.93,-8.21,-7.99,0,*52
1484920886.41,62555,8.31,74144.5,-4.93,-8.11,-7.95,0,*5C
1484920887.66,62556,8.31,74142.3,-4.93,-7.99,-7.83,0,*57
1484920888.88,62557,8.31,74142.8,-4.95,-8.11,-7.87,0,*5B
1484920890.13,62558,8.31,74136.8,-4.95,-8.11,-7.91,0,*53
1484920891.37,62559,8.31,74136.3,-4.95,-8.03,-7.77,0,*59
1484920892.64,62560,8.31,74144.0,-4.93,-7.73,-7.69,0,*52
1484920893.89,62561,8.31,74142.3,-4.93,-7.83,-7.57,0,*51
1484920895.14,62562,8.31,74142.3,-4.93,-7.73,-7.49,0,*52
1484920896.43,62563,8.31,74138.5,-4.93,-7.73,-7.61,0,*59
1484920897.68,62564,8.31,74132.5,-4.93,-7.83,-7.61,0,*51
1484920898.95,62565,8.31,74134.8,-4.93,-7.95,-7.73,0,*54
1484920900.2,62566,8.31,74136.5,-4.93,-7.95,-7.83,0,*58
1484920901.42,62567,8.31,74132.5,-4.93,-8.33,-8.21,0,*5D
1484920902.64,62568,8.31,74128.0,-4.95,-8.17,-8.03,0,*52
1484920903.88,62569,8.31,74134.0,-4.95,-7.99,-7.99,0,*56
1484920905.12,62570,8.31,74128.0,-4.95,-7.91,-7.65,0,*55
1484920906.34,62571,8.31,74128.5,-4.95,-7.87,-7.65,0,*53
1484920907.61,62572,8.31,74128.0,-4.97,-8.11,-7.99,0,*51
1484920908.89,62573,8.31,74132.0,-4.97,-7.91,-7.77,0,*57
1484920910.13,62574,8.31,74138.3,-4.95,-8.11,-8.03,0,*59
1484920911.4,62575,8.31,74134.3,-4.97,-7.99,-7.91,0,*51
1484920912.64,62576,8.31,74132.0,-4.97,-7.77,-7.53,0,*5C
1484920913.9,62577,8.31,74132.3,-4.97,-7.53,-7.43,0,*5A
1484920915.11,62578,8.31,74128.3,-4.95,-7.61,-7.49,0,*5C
1484920916.36,62579,8.31,74130.8,-4.95,-7.77,-7.73,0,*53
1484920917.61,62580,8.31,74132.0,-4.97,-7.73,-7.53,0,*51
1484920918.86,62581,8.31,74136.5,-4.95,-7.65,-7.65,0,*50
1484920920.13,62582,8.31,74138.3,-4.97,-7.77,-7.73,0,*55
1484920921.38,62583,8.31,74142.5,-4.97,-7.61,-7.49,0,*5A
1484920922.65,62584,8.31,74138.5,-4.97,-7.35,-7.35,0,*57
1484920923.87,62585,8.31,74138.3,-5.01,-7.49,-7.39,0,*5F
1484920925.11,62586,8.31,74138.0,-4.97,-7.49,-7.35,0,*5E
1484920926.39,62587,8.31,74138.5,-4.97,-7.43,-7.43,0,*54
1484920927.64,62588,8.31,74136.5,-4.97,-7.31,-7.23,0,*58
1484920928.91,62589,8.31,74140.3,-4.97,-7.05,-6.97,0,*50
1484920930.15,62590,8.31,74142.5,-4.97,-7.11,-7.23,0,*53
1484920931.39,62591,8.31,74140.5,-4.95,-7.43,-7.35,0,*50
1484920932.61,62592,8.31,74140.3,-4.95,-7.35,-7.23,0,*55
1484920933.84,62593,8.31,74142.8,-4.97,-7.23,-7.19,0,*58
1484920935.07,62594,8.31,74144.3,-4.97,-7.23,-7.23,0,*56
1484920936.32,62595,8.31,74144.5,-4.97,-7.31,-7.23,0,*54
1484920937.55,62596,8.31,74146.8,-4.97,-7.19,-7.11,0,*5C
1484920938.78,62597,8.31,74140.5,-4.93,-7.15,-7.15,0,*51
1484920940.02,62598,8.31,74136.8,-4.95,-6.97,-6.97,0,*58
1484920941.22,62599,8.31,74144.8,-4.95,-7.23,-7.11,0,*58
1484920942.44,62600,8.31,74144.8,-4.95,-7.31,-7.23,0,*59
1484920943.71,62601,8.31,74142.3,-4.93,-7.27,-7.27,0,*5D
1484920944.96,62602,8.31,74142.8,-4.93,-7.19,-7.01,0,*57
1484920946.24,62603,8.31,74138.3,-4.93,-7.57,-7.39,0,*57
1484920947.52,62604,8.31,74140.0,-4.97,-7.43,-7.31,0,*59
1484920948.73,62605,8.31,74142.3,-4.95,-7.31,-7.19,0,*55
1484920949.99,62606,8.31,74142.0,-4.97,-7.11,-6.93,0,*55
1484920951.18,62607,8.31,74140.8,-4.95,-7.23,-7.23,0,*5D
1484920952.4,62608,8.31,74146.3,-4.95,-7.31,-7.23,0,*51
1484920953.65,62609,8.31,74144.5,-4.95,-7.35,-7.31,0,*57
1484920954.92,62610,8.31,74142.5,-4.93,-7.27,-7.27,0,*5D
1484920956.19,62611,8.31,74142.0,-4.93,-7.39,-7.27,0,*53
1484920957.45,62612,8.31,74136.3,-4.93,-7.39,-7.31,0,*57
1484920958.7,62613,8.31,74138.5,-4.95,-7.43,-7.35,0,*59
1484920959.97,62614,8.31,74136.3,-4.93,-7.31,-7.27,0,*5E
1484920961.24,62615,8.31,74138.0,-4.93,-7.39,-7.27,0,*57
1484920962.51,62616,8.31,74134.3,-4.93,-7.39,-7.31,0,*53
1484920963.78,62617,8.31,74126.8,-4.93,-7.69,-7.57,0,*57
1484920965.03,62618,8.31,74132.3,-4.93,-7.83,-7.73,0,*5A
1484920966.27,62619,8.31,74136.5,-4.95,-8.11,-7.99,0,*5D
1484920967.55,62620,8.31,74132.8,-4.97,-8.11,-8.03,0,*59
1484920968.83,62621,8.31,74136.0,-4.97,-7.73,-7.65,0,*5C
1484920970.08,62622,8.31,74138.3,-4.97,-7.49,-7.43,0,*52
1484920971.35,62623,8.31,74140.0,-4.97,-7.43,-7.43,0,*59
1484920972.6,62624,8.31,74140.8,-4.97,-7.49,-7.35,0,*55
1484920973.88,62625,8.31,74140.3,-4.97,-7.73,-7.73,0,*5F
1484920975.1,62626,8.31,74138.3,-4.95,-7.61,-7.49,0,*54
1484920976.35,62627,8.31,74140.3,-4.95,-7.43,-7.35,0,*5E
1484920977.59,62628,8.31,74138.8,-4.95,-7.43,-7.31,0,*55
1484920978.84,62629,8.31,74140.8,-4.95,-7.43,-7.35,0,*50
1484920980.06,62630,8.31,74142.8,-4.95,-7.31,-7.11,0,*5B
1484920981.28,62631,8.31,74144.3,-4.95,-7.19,-6.97,0,*5F
1484920982.53,62632,8.31,74144.5,-4.97,-7.31,-7.19,0,*53
1484920983.77,62633,8.31,74140.8,-4.93,-7.31,-7.15,0,*5A
1484920985.02,62634,8.31,74144.3,-4.97,-7.31,-7.11,0,*5D
1484920986.24,62635,8.31,74144.3,-4.95,-7.35,-7.19,0,*52
1484920987.49,62636,8.31,74140.0,-4.95,-7.35,-7.35,0,*5F
1484920988.71,62637,8.31,74142.0,-4.95,-7.49,-7.43,0,*54
1484920989.95,62638,8.31,74144.3,-4.95,-7.43,-7.31,0,*54
1484920991.15,62639,8.31,74142.0,-4.95,-7.19,-7.19,0,*50
1484920992.39,62640,8.31,74144.5,-4.95,-7.05,-6.93,0,*50
1484920993.63,62641,8.31,74146.8,-4.95,-7.31,-7.31,0,*5F
1484920994.85,62642,8.31,74142.0,-4.95,-7.49,-7.43,0,*56
1484920996.1,62643,8.31,74142.0,-4.95,-7.05,-6.93,0,*53
1484920997.32,62644,8.31,74144.0,-4.95,-7.23,-7.31,0,*59
1484920998.56,62645,8.31,74144.5,-4.95,-7.43,-7.35,0,*5A
1484920999.81,62646,8.31,74146.0,-4.95,-7.43,-7.35,0,*59
1484921000.99,62647,8.31,74140.3,-4.95,-7.53,-7.53,0,*59
1484921002.24,62648,8.31,74140.3,-4.95,-7.35,-7.31,0,*52
1484921003.48,62649,8.31,74140.0,-4.95,-6.97,-6.97,0,*57
1484921004.73,62650,8.31,74144.0,-4.95,-7.05,-6.97,0,*55
1484921005.97,62651,8.31,74144.8,-4.95,-6.97,-6.93,0,*5A
1484921007.22,62652,8.31,74142.3,-4.95,-6.93,-6.93,0,*5D
1484921008.44,62653,8.31,74140.0,-4.93,-6.89,-6.81,0,*52
1484921009.72,62654,8.31,74142.0,-4.93,-6.93,-6.93,0,*5D
1484921010.94,62655,8.31,74144.8,-4.93,-6.89,-6.89,0,*5C
1484921012.16,62656,8.31,74144.3,-4.93,-6.77,-6.69,0,*50
1484921013.38,62657,8.31,74140.3,-4.93,-6.69,-6.69,0,*5E
1484921014.63,62658,8.31,74138.5,-4.93,-7.05,-7.19,0,*5C
1484921015.89,62659,8.31,74138.3,-4.93,-7.27,-7.05,0,*50
1484921017.16,62660,8.31,74138.5,-4.93,-7.05,-7.01,0,*5E
1484921018.41,62661,8.31,74136.5,-4.93,-7.27,-7.15,0,*5A
1484921019.63,62662,8.31,74142.0,-4.93,-6.89,-6.89,0,*58
1484921020.86,62663,8.31,74140.8,-4.93,-6.89,-6.81,0,*51
1484921022.06,62664,8.31,74140.8,-4.95,-6.81,-6.81,0,*58
1484921023.26,62665,8.31,74142.5,-4.95,-6.85,-6.81,0,*5D
1484921024.51,62666,8.31,74140.5,-4.93,-6.93,-6.89,0,*57
1484921025.73,62667,8.31,74140.5,-4.93,-6.89,-6.89,0,*5D
1484921026.96,62668,8.31,74140.3,-4.93,-6.89,-6.77,0,*53
1484921028.15,62669,8.31,74144.3,-4.91,-6.81,-6.69,0,*57
1484921029.42,62670,8.31,74146.8,-4.93,-7.05,-7.01,0,*5F
1484921030.69,62671,8.31,74144.8,-4.93,-7.39,-7.31,0,*52
1484921031.92,62672,8.31,74144.8,-4.93,-7.15,-7.15,0,*59
1484921033.16,62673,8.31,74140.3,-4.93,-7.15,-7.05,0,*59
1484921034.41,62674,8.31,74142.3,-4.93,-6.93,-6.89,0,*54
1484921035.68,62675,8.31,74144.0,-4.93,-7.05,-6.93,0,*50
1484921036.9,62676,8.31,74148.3,-4.91,-7.15,-7.05,0,*5E
1484921038.09,62677,8.31,74142.8,-4.91,-6.89,-6.89,0,*5E
1484921039.34,62678,8.31,74142.8,-4.93,-6.89,-6.93,0,*58
1484921040.59,62679,8.31,74146.8,-4.91,-6.93,-6.93,0,*50
1484921041.79,62680,8.31,74146.8,-4.91,-6.89,-6.89,0,*56
1484921043.03,62681,8.31,74144.3,-4.93,-7.19,-7.05,0,*58
1484921044.27,62682,8.31,74146.0,-4.91,-7.05,-7.05,0,*54
1484921045.54,62683,8.31,74148.8,-4.93,-7.01,-6.93,0,*5D
1484921046.76,62684,8.31,74144.5,-4.91,-7.01,-6.89,0,*53
1484921047.98,62685,8.31,74144.3,-4.91,-7.05,-7.15,0,*52
1484921049.23,62686,8.31,74140.0,-4.91,-7.01,-7.01,0,*50
1484921050.45,62687,8.31,74140.3,-4.91,-6.89,-6.93,0,*5A
1484921051.65,62688,8.31,74144.3,-4.91,-6.89,-6.81,0,*56
1484921052.85,62689,8.31,74140.5,-4.91,-6.89,-6.89,0,*5F
1484921054.05,62690,8.31,74136.5,-4.91,-7.19,-7.19,0,*57
1484921055.27,62691,8.31,74140.3,-4.91,-7.19,-7.27,0,*5B
1484921056.52,62692,8.31,74144.3,-4.89,-7.27,-7.15,0,*5D
1484921057.77,62693,8.31,74140.8,-4.91,-7.31,-7.27,0,*53
1484921059.01,62694,8.31,74142.8,-4.91,-7.01,-7.01,0,*53
1484921060.26,62695,8.31,74142.5,-4.91,-7.05,-7.01,0,*56
1484921061.46,62696,8.31,74142.5,-4.91,-7.19,-7.15,0,*5D
1484921062.68,62697,8.31,74140.3,-4.93,-7.15,-7.19,0,*5E
1484921063.93,62698,8.31,74144.3,-4.93,-7.19,-7.05,0,*50
1484921065.15,62699,8.31,74148.0,-4.91,-7.19,-7.05,0,*53
1484921066.39,62700,8.31,74142.5,-4.91,-6.93,-6.93,0,*5F
1484921067.61,62701,8.31,74142.8,-4.91,-7.27,-7.19,0,*53
1484921068.83,62702,8.31,74142.3,-4.91,-7.15,-7.05,0,*5C
1484921070.05,62703,8.31,74142.3,-4.91,-7.27,-7.15,0,*5D
1484921071.33,62704,8.31,74146.5,-4.93,-7.57,-7.43,0,*5C
1484921072.55,62705,8.31,74140.5,-4.93,-7.49,-7.49,0,*58
1484921073.82,62706,8.31,74142.0,-4.93,-7.39,-7.31,0,*53
1484921075.05,62707,8.31,74144.3,-4.93,-7.19,-7.15,0,*56
1484921076.29,62708,8.31,74138.5,-4.93,-7.27,-7.19,0,*58
1484921077.5,62709,8.31,74144.0,-4.91,-7.19,-7.15,0,*5A
1484921078.74,62710,8.31,74140.0,-4.93,-7.27,-7.19,0,*51
1484921079.97,62711,8.31,74140.5,-4.93,-7.19,-7.15,0,*51
1484921081.22,62712,8.31,74144.5,-4.93,-7.01,-6.89,0,*5F
1484921082.47,62713,8.31,74142.8,-4.93,-7.19,-7.05,0,*52
1484921083.74,62714,8.31,74142.3,-4.93,-7.31,-7.27,0,*5F
1484921085.01,62715,8.31,74140.0,-4.93,-7.31,-7.27,0,*5E
1484921086.21,62716,8.31,74146.3,-4.91,-7.19,-7.15,0,*54
1484921087.48,62717,8.31,74144.8,-4.93,-7.31,-7.27,0,*5C
1484921088.75,62718,8.31,74140.3,-4.93,-7.27,-7.27,0,*54
1484921090.02,62719,8.31,74144.0,-4.93,-7.39,-7.31,0,*5D
1484921091.27,62720,8.31,74144.3,-4.93,-7.27,-7.15,0,*5E
1484921092.54,62721,8.31,74144.3,-4.93,-7.05,-7.01,0,*5A
1484921093.81,62722,8.31,74148.0,-4.93,-7.05,-6.93,0,*53
1484921095.08,62723,8.31,74142.8,-4.93,-6.93,-6.93,0,*5C
1484921096.33,62724,8.31,74148.8,-4.93,-7.31,-7.19,0,*51
1484921097.56,62725,8.31,74146.8,-4.93,-7.15,-7.15,0,*5A
1484921098.8,62726,8.31,74142.3,-4.93,-7.19,-7.05,0,*54
1484921100.07,62727,8.31,74142.8,-4.93,-7.01,-7.05,0,*5C
1484921101.34,62728,8.31,74144.8,-4.93,-7.05,-6.93,0,*59
1484921102.61,62729,8.31,74142.5,-4.93,-7.31,-7.31,0,*56
1484921103.88,62730,8.31,74140.8,-4.93,-7.39,-7.31,0,*56
1484921105.15,62731,8.31,74142.5,-4.93,-7.31,-7.27,0,*58
1484921106.42,62732,8.31,74144.3,-4.93,-7.39,-7.31,0,*54
1484921107.64,62733,8.31,74140.0,-4.95,-7.19,-6.97,0,*5C
1484921108.84,62734,8.31,74140.0,-4.95,-7.19,-7.11,0,*54
1484921110.08,62735,8.31,74142.3,-4.95,-7.05,-6.97,0,*57
1484921111.27,62736,8.31,74140.5,-4.95,-6.85,-6.85,0,*5E
1484921112.52,62737,8.31,74146.0,-4.95,-7.35,-7.35,0,*5F
1484921113.76,62738,8.31,74138.5,-4.95,-7.35,-7.35,0,*50
1484921114.99,62739,8.31,74142.5,-4.95,-7.35,-7.23,0,*56
1484921116.21,62740,8.31,74146.0,-4.95,-6.97,-6.85,0,*5C
1484921117.4,62741,8.31,74146.3,-4.95,-6.81,-6.73,0,*53
1484921118.62,62742,8.31,74138.5,-4.95,-6.85,-6.97,0,*5E
1484921119.85,62743,8.31,74142.0,-4.95,-7.05,-7.05,0,*5C
1484921121.1,62744,8.31,74142.8,-4.93,-7.43,-7.49,0,*57
1484921122.37,62745,8.31,74140.8,-4.93,-7.43,-7.39,0,*51
1484921123.62,62746,8.31,74142.8,-4.95,-7.43,-7.35,0,*58
1484921124.86,62747,8.31,74144.5,-4.95,-7.35,-7.31,0,*5C
1484921126.06,62748,8.31,74140.0,-4.95,-7.23,-7.11,0,*56
1484921127.26,62749,8.31,74140.5,-4.95,-7.23,-7.23,0,*56
1484921128.48,62750,8.31,74142.5,-4.95,-7.35,-7.23,0,*59
1484921129.74,62751,8.31,74138.5,-4.97,-7.35,-7.23,0,*5A
1484921130.96,62752,8.31,74142.3,-4.95,-7.31,-7.23,0,*5F
1484921132.2,62753,8.31,74144.0,-4.95,-7.65,-7.61,0,*59
1484921133.46,62754,8.31,74144.8,-4.97,-7.77,-7.87,0,*57
1484921134.65,62755,8.31,74142.5,-4.95,-7.53,-7.49,0,*50
1484921135.87,62756,8.31,74136.3,-4.97,-7.53,-7.49,0,*51
1484921137.14,62757,8.31,74136.5,-4.97,-7.43,-7.31,0,*5E
1484921138.42,62758,8.31,74138.3,-4.97,-7.43,-7.43,0,*54
1484921139.65,62759,8.31,74136.8,-4.97,-7.19,-7.11,0,*5D
1484921140.93,62760,8.31,74138.0,-4.97,-7.05,-6.97,0,*55
1484921142.2,62761,8.31,74138.8,-4.97,-6.93,-6.93,0,*5E
1484921143.48,62762,8.31,74136.8,-4.97,-6.97,-6.93,0,*59
1484921144.71,62763,8.31,74144.8,-4.97,-6.85,-6.81,0,*58
1484921145.93,62764,8.31,74140.5,-4.97,-6.81,-6.73,0,*56
1484921147.16,62765,8.31,74146.3,-4.97,-6.55,-6.55,0,*5A
1484921148.35,62766,8.31,74144.0,-4.95,-6.73,-6.73,0,*5B
1484921149.62,62767,8.31,74144.3,-4.97,-6.63,-6.63,0,*58
1484921150.87,62768,8.31,74146.3,-4.95,-6.93,-6.93,0,*55
1484921152.1,62769,8.31,74142.3,-4.97,-6.85,-6.81,0,*52
1484921153.32,62770,8.31,74138.5,-4.97,-6.85,-6.81,0,*5A
1484921154.52,62771,8.31,74132.8,-4.95,-6.81,-6.85,0,*59
1484921155.76,62772,8.31,74132.8,-4.95,-7.31,-7.31,0,*5E
1484921157.0,62773,8.31,74136.5,-4.95,-7.31,-7.31,0,*5F
1484921158.22,62774,8.31,74140.5,-4.95,-7.31,-7.23,0,*5B
1484921159.46,62775,8.31,74140.5,-4.95,-7.05,-7.05,0,*59
1484921160.73,62776,8.31,74142.0,-4.97,-6.97,-6.93,0,*5C
1484921161.96,62777,8.31,74140.3,-4.95,-6.93,-6.81,0,*58
1484921163.18,62778,8.31,74144.5,-4.95,-6.93,-6.85,0,*53
1484921164.46,62779,8.31,74142.3,-4.97,-6.97,-6.97,0,*57
1484921165.67,62780,8.31,74144.8,-4.95,-6.85,-6.93,0,*54
1484921166.9,62781,8.31,74142.3,-4.97,-6.81,-6.73,0,*5D
1484921168.15,62782,8.31,74140.3,-4.95,-6.97,-6.93,0,*55
1484921169.37,62783,8.31,74144.5,-4.95,-7.05,-7.11,0,*55
1484921170.56,62784,8.31,74148.5,-4.95,-6.85,-6.73,0,*5E
1484921171.78,62785,8.31,74140.5,-4.97,-6.73,-6.73,0,*54
1484921172.97,62786,8.31,74150.5,-4.95,-6.69,-6.69,0,*55
1484921174.16,62787,8.31,74144.0,-4.95,-6.69,-6.73,0,*5F
1484921175.35,62788,8.31,74144.3,-4.95,-6.85,-6.81,0,*5F
1484921176.6,62789,8.31,74146.0,-4.95,-6.93,-6.97,0,*5E
1484921177.87,62790,8.31,74146.0,-4.97,-7.05,-6.93,0,*5E
1484921179.09,62791,8.31,74144.3,-4.95,-6.73,-6.63,0,*52
1484921180.31,62792,8.31,74146.0,-4.95,-6.69,-6.63,0,*5A
1484921181.5,62793,8.31,74144.0,-4.95,-6.81,-6.69,0,*57
1484921182.71,62794,8.31,74146.3,-4.95,-6.63,-6.55,0,*53
1484921183.91,62795,8.31,74142.3,-4.95,-6.55,-6.55,0,*57
1484921185.1,62796,8.31,74144.5,-4.95,-6.73,-6.69,0,*5F
1484921186.32,62797,8.31,74144.8,-4.93,-6.89,-6.89,0,*53
1484921187.53,62798,8.31,74146.8,-4.93,-6.69,-6.69,0,*5C
1484921188.76,62799,8.31,74142.0,-4.93,-6.77,-6.77,0,*5D
1484921190.0,62800,8.31,74136.5,-4.93,-6.63,-6.59,0,*5B
1484921191.22,62801,8.31,74138.0,-4.93,-6.59,-6.69,0,*50
1484921192.47,62802,8.31,74134.8,-4.91,-7.01,-7.01,0,*52
1484921193.72,62803,8.31,74140.0,-4.91,-6.93,-6.93,0,*53
1484921194.98,62804,8.31,74138.3,-4.93,-7.01,-7.05,0,*52
1484921196.2,62805,8.31,74132.8,-4.93,-6.77,-6.69,0,*58
1484921197.41,62806,8.31,74138.3,-4.91,-6.89,-6.81,0,*5E
1484921198.66,62807,8.31,74142.8,-4.91,-6.93,-6.93,0,*57
1484921199.93,62808,8.31,74144.3,-4.93,-7.05,-7.01,0,*5E
1484921201.2,62809,8.31,74140.3,-4.93,-7.27,-7.31,0,*5C
1484921202.46,62810,8.31,74142.0,-4.93,-7.39,-7.39,0,*53
1484921203.74,62811,8.31,74146.0,-4.93,-7.31,-7.27,0,*55
1484921204.96,62812,8.31,74142.8,-4.93,-7.19,-7.15,0,*5D
1484921206.19,62813,8.31,74134.0,-4.93,-7.19,-7.19,0,*50
1484921207.42,62814,8.31,74138.3,-4.93,-7.19,-7.19,0,*57
1484921208.64,62815,8.31,74138.8,-4.95,-7.53,-7.61,0,*51
1484921209.86,62816,8.31,74140.3,-4.95,-7.53,-7.61,0,*52
1484921211.11,62817,8.31,74138.8,-4.95,-7.35,-7.31,0,*56
1484921212.35,62818,8.31,74136.8,-4.95,-6.93,-6.93,0,*5D
1484921213.55,62819,8.31,74140.8,-4.95,-7.19,-7.19,0,*5C
1484921214.8,62820,8.31,74136.8,-4.97,-7.11,-7.05,0,*51
1484921216.03,62821,8.31,74140.5,-4.97,-7.11,-7.19,0,*5D
1484921217.31,62822,8.31,74146.0,-4.97,-6.97,-6.93,0,*52
1484921218.56,62823,8.31,74142.0,-4.97,-6.97,-6.85,0,*54
1484921219.83,62824,8.31,74142.5,-4.97,-6.97,-6.97,0,*50
1484921221.02,62825,8.31,74140.5,-4.95,-6.69,-6.69,0,*53
1484921222.29,62826,8.31,74142.8,-4.97,-6.97,-7.05,0,*58
1484921223.52,62827,8.31,74136.8,-4.95,-6.97,-7.05,0,*5B
1484921224.74,62828,8.31,74142.0,-4.95,-6.85,-6.97,0,*5D
1484921225.96,62829,8.31,74140.5,-4.97,-6.69,-6.69,0,*5D
1484921227.2,62830,8.31,74140.8,-4.95,-6.93,-6.93,0,*57
1484921228.43,62831,8.31,74144.3,-4.97,-6.81,-6.85,0,*50
1484921229.65,62832,8.31,74142.0,-4.97,-6.73,-6.69,0,*5C
1484921230.84,62833,8.31,74140.5,-4.95,-6.73,-6.73,0,*54
1484921232.09,62834,8.31,74140.8,-4.97,-7.11,-7.05,0,*54
1484921233.29,62835,8.31,74140.5,-4.95,-6.81,-6.81,0,*52
1484921234.52,62836,8.31,74146.3,-4.97,-7.11,-7.11,0,*53
1484921235.79,62837,8.31,74140.3,-4.97,-7.05,-6.97,0,*58
1484921237.07,62838,8.31,74140.0,-4.97,-7.35,-7.35,0,*5D
1484921238.32,62839,8.31,74140.3,-4.97,-7.23,-7.31,0,*5F
1484921239.55,62840,8.31,74140.0,-4.97,-6.81,-6.81,0,*52
1484921240.77,62841,8.31,74140.8,-4.97,-6.73,-6.69,0,*58
1484921241.98,62842,8.31,74142.0,-4.95,-6.63,-6.69,0,*58
1484921243.2,62843,8.31,74144.0,-4.97,-6.73,-6.73,0,*51
1484921244.39,62844,8.31,74142.8,-4.95,-6.85,-6.85,0,*54
1484921245.64,62845,8.31,74146.3,-4.97,-7.05,-7.11,0,*52
1484921246.91,62846,8.31,74144.0,-4.97,-7.05,-6.97,0,*5E
1484921248.16,62847,8.31,74142.8,-4.97,-6.85,-6.93,0,*52
1484921249.38,62848,8.31,74146.3,-4.95,-6.85,-6.93,0,*5F
1484921250.66,62849,8.31,74148.3,-4.97,-6.97,-6.97,0,*5B
1484921251.85,62850,8.31,74144.3,-4.95,-6.73,-6.81,0,*5C
1484921253.05,62851,8.31,74144.5,-4.95,-6.85,-6.85,0,*50
1484921254.27,62852,8.31,74146.8,-4.97,-6.73,-6.73,0,*51
1484921255.5,62853,8.31,74146.8,-4.97,-6.85,-6.81,0,*54
1484921256.74,62854,8.31,74146.8,-4.95,-6.93,-6.93,0,*55
1484921257.97,62855,8.31,74146.8,-4.97,-6.81,-6.85,0,*52
1484921259.19,62856,8.31,74148.3,-4.97,-6.55,-6.55,0,*55
1484921260.43,62857,8.31,74144.8,-4.95,-6.63,-6.63,0,*56
1484921261.68,62858,8.31,74142.3,-4.95,-6.97,-6.97,0,*59
1484921262.91,62859,8.31,74138.3,-4.95,-7.05,-7.05,0,*58
1484921264.16,62860,8.31,74142.0,-4.97,-7.11,-7.05,0,*55
1484921265.36,62861,8.31,74142.8,-4.95,-7.11,-7.11,0,*53
1484921266.64,62862,8.31,74144.5,-4.97,-6.93,-6.93,0,*52
1484921267.86,62863,8.31,74144.0,-4.97,-6.85,-6.85,0,*53
1484921269.06,62864,8.31,74142.5,-4.95,-7.11,-7.19,0,*5E
1484921270.34,62865,8.31,74140.8,-4.97,-7.35,-7.35,0,*55
1484921271.61,62866,8.31,74142.8,-4.97,-7.35,-7.31,0,*52
1484921272.86,62867,8.31,74138.5,-4.97,-7.61,-7.49,0,*5D
1484921274.1,62868,8.31,74140.5,-5.03,-7.49,-7.35,0,*5F
1484921275.35,62869,8.31,74140.0,-4.95,-7.35,-7.31,0,*5F
1484921276.61,62870,8.31,74144.5,-4.97,-7.05,-7.05,0,*51
1484921277.83,62871,8.31,74144.5,-4.97,-6.73,-6.69,0,*5B
1484921279.05,62872,8.31,74150.0,-5.01,-6.97,-6.85,0,*5E
1484921280.28,62873,8.31,74146.3,-5.03,-7.11,-7.11,0,*5E
1484921281.5,62874,8.31,74146.5,-4.97,-6.81,-6.69,0,*53
1484921282.75,62875,8.31,74140.0,-4.97,-6.69,-6.63,0,*5E
1484921283.97,62876,8.31,74144.0,-4.97,-6.69,-6.55,0,*58
1484921285.2,62877,8.31,74136.8,-4.97,-6.81,-6.81,0,*56
1484921286.47,62878,8.31,74140.0,-4.97,-6.97,-6.97,0,*59
1484921287.75,62879,8.31,74138.5,-4.97,-7.05,-6.93,0,*56
1484921288.99,62880,8.31,74144.3,-4.97,-7.11,-7.05,0,*5B
1484921290.27,62881,8.31,74148.3,-4.97,-6.97,-6.97,0,*5F
1484921291.54,62882,8.31,74144.0,-4.97,-6.93,-6.93,0,*5C
1484921292.8,62883,8.31,74140.3,-4.97,-6.93,-6.81,0,*5E
1484921294.03,62884,8.31,74146.0,-4.97,-6.81,-6.73,0,*57
1484921295.27,62885,8.31,74144.0,-4.97,-6.69,-6.63,0,*51
1484921296.49,62886,8.31,74142.3,-4.97,-6.73,-6.73,0,*58
1484921297.71,62887,8.31,74140.0,-4.97,-6.73,-6.69,0,*52
1484921298.96,62888,8.31,74144.3,-4.97,-6.63,-6.55,0,*53
1484921300.18,62889,8.31,74144.0,-4.97,-6.69,-6.55,0,*58
1484921301.37,62890,8.31,74148.0,-4.95,-6.85,-6.85,0,*5D
1484921302.59,62891,8.31,74148.0,-4.97,-6.69,-6.69,0,*5E
1484921303.83,62892,8.31,74144.5,-4.97,-6.63,-6.55,0,*58
1484921305.05,62893,8.31,74146.3,-4.95,-6.63,-6.51,0,*5F
1484921306.27,62894,8.31,74144.3,-4.97,-6.69,-6.55,0,*54
1484921307.49,62895,8.31,74150.5,-4.97,-6.81,-6.73,0,*57
1484921308.68,62896,8.31,74148.5,-4.95,-6.81,-6.69,0,*5D
1484921309.9,62897,8.31,74154.0,-4.95,-6.69,-6.63,0,*50
1484921311.11,62898,8.31,74154.0,-4.95,-6.63,-6.55,0,*50
1484921312.31,62899,8.31,74150.0,-4.95,-6.85,-6.73,0,*5D
1484921313.53,62900,8.31,74144.8,-4.97,-6.81,-6.69,0,*51
1484921314.77,62901,8.31,74144.3,-4.95,-6.63,-6.63,0,*54
1484921315.99,62902,8.31,74144.0,-4.95,-7.11,-6.97,0,*58
1484921317.21,62903,8.31,74150.3,-4.95,-7.11,-7.05,0,*53
1484921318.48,62904,8.31,74148.0,-4.97,-7.43,-7.35,0,*52
1484921319.76,62905,8.31,74144.0,-4.97,-6.93,-6.93,0,*52
1484921321.0,62906,8.31,74144.8,-4.95,-7.05,-6.97,0,*59